Mobile Downtown Airport

Jump to: basic info | weather | frequencies | runways | comments

Related pages: nearby airports | nearby navaids | notams | map

Basic information (top)

Codes: BFM KBFM
Location: lon 30.626801, lat -88.068100, elev 26 ft / 8 m msl
Status: medium_airport
Scheduled airline service: no
Links: Wikipedia Mobile

Weather (top)

Current conditions (rec'd 2015/03/02 19:53Z):

KBFM 021953Z 17007KT 4SM BR OVC003 20/18 A3024

Airport forecast (rec'd 2015/03/02 18:45Z):

TAF KBFM 021741Z 0218/0318 00000KT 1SM BR OVC003 
      TEMPO 0218/0220 1/4SM FG VV002 
     FM022000 17004KT P6SM OVC011 
     FM030300 VRB03KT 4SM BR OVC005 
     FM030900 00000KT 2SM BR OVC003 
      TEMPO 0310/0314 1/4SM FG VV001 
     FM031500 17005KT P6SM BKN011

Frequencies (top)

Verify before use: may be inaccurate or out of date.

A/D: 118.5 MHz (APP/DEP)
ATIS: 135.575 MHz (ATIS)
CTAF: 118.8 MHz (CTAF)
GND: 121.7 MHz (GND)
RDO: 112.8 MHz (ANNISTON RDO)
TWR: 118.8 MHz (DOWNTOWN TWR)
UNIC: 122.95 MHz (UNICOM)

Runways (top)

14/32: 9,618 x 150 ft (2,932 x 46 m) — other (PEM) — lighted

18/36: 7,800 x 150 ft (2,377 x 46 m) — other (PEM) — lighted

Latest comments (top)

No comments yet for Mobile Downtown Airport

More... (top)

See also NOTAMs and nearby airports and navaids, or visit the Mobile Downtown Airport page at the main OurAirports website..